Regional Weather Roundup
Issued by NWS

Home | Current Version | Previous Version | Text Only | Print | Product List | Glossary Off
Versions: 1 2 3 4 5 6 7 8 9 10 11 12 13 14 15 16 17 18 19 20 21 22 23 24 25 26 27 28 29 30 31 32 33 34 35 36 37 38 39 40 41 42 43 44 45 46 47 48 49 50

000
ASUS45 KPSR 260010
RWRAZ

ARIZONA HOURLY REGIONAL WEATHER ROUNDUP
NATIONAL WEATHER SERVICE PHOENIX AZ
500 PM MST WED MAY 25 2016

NOTE: FAIR INDICATES FEW OR NO CLOUDS BELOW 12,000 FEET WITH NO
SIGNIFICANT WEATHER AND/OR OBSTRUCTIONS TO VISIBILITY.

AZZ001>003-036-260100-
NORTHWEST ARIZONA

CITY           SKY/WX    TMP DP  RH WIND       PRES   REMARKS
BULLHEAD CITY  SUNNY     84  19   9 S16       29.83F
KINGMAN        SUNNY     76  17  11 SW21G30   29.92F
6HR MIN TEMP:  73; 6HR MAX TEMP:  78;

$$

AZZ004>008-015-016-018-260100-
NORTH CENTRAL ARIZONA

CITY           SKY/WX    TMP DP  RH WIND       PRES   REMARKS
GRAND CANYON   CLOUDY    64  16  15 S14G25    30.04F
6HR MIN TEMP:  60; 6HR MAX TEMP:  68;

WILLIAMS       PTSUNNY   64  14  14 SW20G28   30.12F
PRESCOTT       SUNNY     69  19  15 SW15G29   30.01F
6HR MIN TEMP:  67; 6HR MAX TEMP:  71;

FLAGSTAFF      SUNNY     60   9  13 SW18G26   30.09R
6HR MIN TEMP:  56; 6HR MAX TEMP:  63;

PAYSON         SUNNY     70  19  14 SW14G22   30.04F
PAGE           SUNNY     78  12   8 S8        29.89F
6HR MIN TEMP:  69; 6HR MAX TEMP:  79;

$$

AZZ009>014-017-260100-
NORTHEAST ARIZONA

CITY           SKY/WX    TMP DP  RH WIND       PRES   REMARKS
WINSLOW        SUNNY     75  14  10 S20G28    29.98F
6HR MIN TEMP:  71; 6HR MAX TEMP:  79;

SAINT JOHNS    SUNNY     74  17  11 SW24G35   30.00F
6HR MIN TEMP:  72; 6HR MAX TEMP:  77;

SHOW LOW       SUNNY     66  16  14 S24G35    30.07F
$$

AZZ023-260100-
GREATER PHOENIX AREA

CITY           SKY/WX    TMP DP  RH WIND       PRES   REMARKS
PHOENIX        MOSUNNY   91  16   6 W17       29.79F
6HR MIN TEMP:  82; 6HR MAX TEMP:  91;

BUCKEYE        SUNNY     86  30  13 SW12G18   29.84F
GLENDALE       MOSUNNY   90  25   9 S20G26    29.83F
LUKE AFB       SUNNY     89  21   8 SW21G29   29.80F
6HR MIN TEMP:  81; 6HR MAX TEMP:  90;

DEER VALLEY    SUNNY     86  28  12 W10G23    29.82F
6HR MIN TEMP:  79; 6HR MAX TEMP:  87;

SCOTTSDALE     SUNNY     88  24  10 SW14G21   29.84F
6HR MIN TEMP:  80; 6HR MAX TEMP:  89;

MESA-GATEWAY   MOSUNNY   90  19   7 SW20G28   29.84F
CHANDLER       MOSUNNY   91  14   6 SW17      29.82F
$$

AZZ027-028-260100-
SOUTHWEST MARICOPA COUNTY AND PINAL COUNTY

CITY           SKY/WX    TMP DP  RH WIND       PRES   REMARKS
CASA GRANDE    SUNNY     88  27  11 SW17G29   29.86S
6HR MIN TEMP:  81; 6HR MAX TEMP:  90;

GILA BEND      MOSUNNY   87  32  14 S15       29.83F
6HR MIN TEMP:  84; 6HR MAX TEMP:  91;

$$

AZZ503-504-507>509-260100-
SOUTHEAST ARIZONA

CITY           SKY/WX    TMP DP  RH WIND       PRES   REMARKS
TUCSON         SUNNY     87  17   7 SW18G29   29.92F
6HR MIN TEMP:  83; 6HR MAX TEMP:  89;

DAVIS-MONTHAN  SUNNY     86  16   7 W13G24    29.91S
6HR MIN TEMP:  82; 6HR MAX TEMP:  88;

RYAN FIELD     SUNNY     88  19   8 SW23G31   29.92F
NOGALES        SUNNY     82  18   9 SW24G36   29.99F
6HR MIN TEMP:  78; 6HR MAX TEMP:  86;

SIERRA VISTA   SUNNY     79  15   9 SW23G33   30.04F
6HR MIN TEMP:  77; 6HR MAX TEMP:  82;

DOUGLAS        SUNNY     95  18   6 SW32G40   29.99S
6HR MIN TEMP:  80; 6HR MAX TEMP:  96;

SAFFORD        SUNNY     88  17   7 SW9       29.87F
6HR MIN TEMP:  81; 6HR MAX TEMP:  91;

$$

AZZ020-021-025-026-031-260100-
SOUTHWEST ARIZONA

CITY           SKY/WX    TMP DP  RH WIND       PRES   REMARKS
YUMA           NOT AVBL
$$

CAZ031-033-041-043-047-048-061-260100-
SOUTHERN CALIFORNIA

CITY           SKY/WX    TMP DP  RH WIND       PRES   REMARKS
DOWNTOWN L.A.  SUNNY     67  44  43 VRB7      30.05F
6HR MIN TEMP:  65; 6HR MAX TEMP:  68;

L.A. AIRPORT   MOSUNNY   65  51  60 W17       30.07F
6HR MIN TEMP:  62; 6HR MAX TEMP:  67;

SAN DIEGO      PTSUNNY   68  50  52 W13G21    30.11S
6HR MIN TEMP:  68; 6HR MAX TEMP:  71;

BURBANK        SUNNY     67  41  38 S10       30.05S
6HR MIN TEMP:  61; 6HR MAX TEMP:  68;

ONTARIO        PTSUNNY   66  42  41 W14       30.05S
6HR MIN TEMP:  62; 6HR MAX TEMP:  70;

RIVERSIDE      PTSUNNY   68  41  37 W14G21    30.04F
6HR MIN TEMP:  65; 6HR MAX TEMP:  73;

PALM SPRINGS   MOSUNNY   80  38  22 NW28G35   29.89F
EL CENTRO NAS  MOSUNNY   79  37  22 W35G44    29.92F
6HR MIN TEMP:  76; 6HR MAX TEMP:  83;

IMPERIAL       SUNNY     78  39  24 W28G37    29.89S
6HR MIN TEMP:  77; 6HR MAX TEMP:  84;

BLYTHE         SUNNY     84  30  14 SW22G31   29.84F
6HR MIN TEMP:  77; 6HR MAX TEMP:  86;

NEEDLES        SUNNY     87  19   8 S14       29.82F
6HR MIN TEMP:  81; 6HR MAX TEMP:  87;

$$

NVZ020-UTZ003-260100-
SOUTHERN NEVADA-UTAH

CITY           SKY/WX    TMP DP  RH WIND       PRES   REMARKS
LAS VEGAS      MOSUNNY   80  22  11 E12       29.81F
6HR MIN TEMP:  73; 6HR MAX TEMP:  82;

SALT LAKE CITY PTSUNNY   67  34  29 SE9       29.98F
6HR MIN TEMP:  58; 6HR MAX TEMP:  68; 6HR PCP: TRACE;

$$

NMZ009-TXZ055-260100-
NEW MEXICO-WEST TEXAS

CITY           SKY/WX    TMP DP  RH WIND       PRES   REMARKS
ALBUQUERQUE    CLOUDY    79  16   9 S20       29.95F
6HR MIN TEMP:  71; 6HR MAX TEMP:  79;

EL PASO        MOSUNNY   92  19   7 W17G30    29.92F
6HR MIN TEMP:  83; 6HR MAX TEMP:  93;

$$


........................KEY........................
SKY/WX - SKY CONDITION/WEATHER
TMP    - TEMPERATURE IN FAHRENHEIT
DP     - DEW POINT IN FAHRENHEIT
RH     - RELATIVE HUMIDITY IN PERCENT
WIND   - DIRECTION AND SPEED IN MILES PER HOUR (MPH)
VRB    - VARIABLE WIND DIRECTION
PRES   - MEAN SEA LEVEL PRESSURE IN INCHES OF MERCURY
         F - FALLING PRESSURE   R - RISING PRESSURE
         S - STEADY PRESSURE
VSB    - VISIBILITY IN MILES
HX     - HEAT INDEX IN FAHRENHEIT
WCI    - WIND CHILL INDEX IN FAHRENHEIT
TC     - TEMPERATURE IN CELSIUS WHICH IS ALSO KNOWN AS
         TEMPERATURE IN CENTIGRADE
AFB    - AIR FORCE BASE
         LUKE AFB IS LUKE AIR FORCE BASE
         DAVIS-MONTHAN IS DAVIS-MONTHAN AIR FORCE BASE
NAS    - NAVAL AIR STATION
         EL CENTRO NAS IS EL CENTRO NAVAL AIR STATION
N/A    - NOT AVAILABLE




USA.gov is the U.S. government's official web portal to all federal, state and local government web resources and services.